User: anonymous   Login
Location: Unspecified
(0.0000°N, 0.0000°E)
Time: 18:27:10
(UTC+00:00)
Language:

CASSIOPE - Orbit

View from above orbital plane
View from above orbital plane
View from above satellite
View from above satellite

Ground track
Ground track

The orbit data is extracted from the following two-line orbital elements,

1 39265U 13055A   17080.96030136 +.00003663 +00000-0 +10634-3 0  9998
2 39265 080.9680 105.2745 0692030 145.2640 219.5825 14.22030889179112
Epoch (UTC): 21 March 2017 23:02:50
Eccentricity: 0.0692030
inclination: 80.9680°
perigee height: 320 km
apogee height: 1316 km
right ascension of ascending node: 105.2745°
argument of perigee: 145.2640°
revolutions per day: 14.22030889
mean anomaly at epoch: 219.5825°
orbit number at epoch: 17911

The dashed part of the orbit path shows where the satellite is in the earth's shadow,  

DLR